| time (UTC) | temp F | wind direction | speed MPH | gust MPH | rain 1hr in | rain 24hr in | rain mn in | humidity % | barometer mb |
| 20260507174455 | 63 | 279 | 1.0 | 1.0 | 0.00 | 0.00 | 0.00 | 34 | 1016.1 |
| 20260507173955 | 62 | 265 | 1.0 | 2.0 | 0.00 | 0.00 | 0.00 | 35 | 1016.1 |
| 20260507173454 | 62 | 263 | 1.0 | 2.0 | 0.00 | 0.00 | 0.00 | 35 | 1016.2 |
| 20260507172953 | 63 | 279 | 1.0 | 1.0 | 0.00 | 0.00 | 0.00 | 34 | 1016.2 |
| 20260507172453 | 62 | 275 | 1.0 | 1.0 | 0.00 | 0.00 | 0.00 | 34 | 1016.3 |
| 20260507171952 | 61 | 272 | 1.0 | 2.0 | 0.00 | 0.00 | 0.00 | 35 | 1016.3 |
| 20260507171451 | 61 | 248 | 2.0 | 3.0 | 0.00 | 0.00 | 0.00 | 35 | 1016.3 |
| 20260507170951 | 60 | 259 | 1.0 | 3.0 | 0.00 | 0.00 | 0.00 | 35 | 1016.4 |
| 20260507170450 | 60 | 267 | 1.0 | 2.0 | 0.00 | 0.00 | 0.00 | 39 | 1016.4 |
| 20260507165949 | 60 | 261 | 1.0 | 2.0 | 0.00 | 0.00 | 0.00 | 36 | 1016.5 |
| 20260507165449 | 60 | 266 | 1.0 | 1.0 | 0.00 | 0.00 | 0.00 | 37 | 1016.5 |
| 20260507164948 | 60 | 249 | 2.0 | 3.0 | 0.00 | 0.00 | 0.00 | 39 | 1016.5 |
| 20260507164448 | 60 | 268 | 1.0 | 2.0 | 0.00 | 0.00 | 0.00 | 37 | 1016.5 |
| 20260507163947 | 60 | 275 | 1.0 | 1.0 | 0.00 | 0.00 | 0.00 | 37 | 1016.6 |
| 20260507163446 | 60 | 265 | 1.0 | 2.0 | 0.00 | 0.00 | 0.00 | 36 | 1016.6 |
| 20260507162945 | 59 | 252 | 2.0 | 3.0 | 0.00 | 0.00 | 0.00 | 39 | 1016.6 |
| 20260507162445 | 59 | 253 | 2.0 | 3.0 | 0.00 | 0.00 | 0.00 | 39 | 1016.5 |
| 20260507161944 | 58 | 260 | 2.0 | 3.0 | 0.00 | 0.00 | 0.00 | 39 | 1016.6 |
| 20260507161443 | 58 | 268 | 1.0 | 2.0 | 0.00 | 0.00 | 0.00 | 38 | 1016.6 |
| 20260507160943 | 58 | 250 | 2.0 | 3.0 | 0.00 | 0.00 | 0.00 | 38 | 1016.6 |
| 20260507160442 | 57 | 255 | 2.0 | 3.0 | 0.00 | 0.00 | 0.00 | 38 | 1016.8 |
| 20260507155942 | 57 | 252 | 2.0 | 3.0 | 0.00 | 0.00 | 0.00 | 39 | 1016.9 |
| 20260507155441 | 57 | 254 | 1.0 | 2.0 | 0.00 | 0.00 | 0.00 | 39 | 1017.0 |
| 20260507154940 | 56 | 254 | 1.0 | 3.0 | 0.00 | 0.00 | 0.00 | 39 | 1017.0 |
| 20260507154440 | 56 | 249 | 2.0 | 3.0 | 0.00 | 0.00 | 0.00 | 39 | 1017.0 |
| 20260507153939 | 55 | 258 | 1.0 | 3.0 | 0.00 | 0.00 | 0.00 | 41 | 1017.1 |
| 20260507153438 | 54 | 253 | 1.0 | 1.0 | 0.00 | 0.00 | 0.00 | 43 | 1017.1 |
| 20260507152938 | 53 | 250 | 2.0 | 3.0 | 0.00 | 0.00 | 0.00 | 42 | 1017.0 |
| 20260507152437 | 53 | 238 | 2.0 | 2.0 | 0.00 | 0.00 | 0.00 | 42 | 1017.0 |
| 20260507151937 | 52 | 243 | 1.0 | 2.0 | 0.00 | 0.00 | 0.00 | 43 | 1017.0 |
| 20260507151436 | 52 | 241 | 1.0 | 2.0 | 0.00 | 0.00 | 0.00 | 43 | 1017.0 |
| 20260507150935 | 52 | 240 | 2.0 | 2.0 | 0.00 | 0.00 | 0.00 | 42 | 1017.1 |
| 20260507150435 | 51 | 246 | 1.0 | 2.0 | 0.00 | 0.00 | 0.00 | 44 | 1017.2 |
| 20260507145934 | 51 | 248 | 2.0 | 2.0 | 0.00 | 0.00 | 0.00 | 43 | 1017.2 |
| 20260507145827 | 51 | 242 | 1.0 | 1.0 | 0.00 | 0.00 | 0.00 | 44 | 1017.2 |
| 20260507145433 | 51 | 242 | 1.0 | 1.0 | 0.00 | 0.00 | 0.00 | 44 | 1017.2 |
| 20260507144933 | 50 | 247 | 1.0 | 2.0 | 0.00 | 0.00 | 0.00 | 44 | 1017.2 |
| 20260507144432 | 50 | 240 | 1.0 | 2.0 | 0.00 | 0.00 | 0.00 | 44 | 1017.2 |
| 20260507143932 | 50 | 210 | 2.0 | 3.0 | 0.00 | 0.00 | 0.00 | 43 | 1017.1 |
| 20260507143431 | 49 | 241 | 1.0 | 2.0 | 0.00 | 0.00 | 0.00 | 44 | 1017.2 |
| 20260507142930 | 49 | 229 | 1.0 | 2.0 | 0.00 | 0.00 | 0.00 | 44 | 1017.1 |
| 20260507142430 | 49 | 241 | 2.0 | 2.0 | 0.00 | 0.00 | 0.00 | 45 | 1017.1 |
| 20260507141929 | 48 | 237 | 2.0 | 2.0 | 0.00 | 0.00 | 0.00 | 46 | 1017.0 |
| 20260507141428 | 48 | 244 | 1.0 | 2.0 | 0.00 | 0.00 | 0.00 | 46 | 1017.1 |
| 20260507140928 | 48 | 244 | 1.0 | 2.0 | 0.00 | 0.00 | 0.00 | 45 | 1017.1 |
| 20260507140427 | 47 | 243 | 1.0 | 2.0 | 0.00 | 0.00 | 0.00 | 47 | 1017.1 |
| 20260507135926 | 47 | 246 | 1.0 | 2.0 | 0.00 | 0.00 | 0.00 | 46 | 1017.0 |
| 20260507135426 | 46 | 258 | 1.0 | 2.0 | 0.00 | 0.00 | 0.00 | 47 | 1017.1 |
| 20260507134925 | 46 | 249 | 1.0 | 2.0 | 0.00 | 0.00 | 0.00 | 48 | 1017.0 |
| 20260507134425 | 45 | 246 | 1.0 | 2.0 | 0.00 | 0.00 | 0.00 | 48 | 1017.1 |
| 20260507133924 | 45 | 245 | 1.0 | 2.0 | 0.00 | 0.00 | 0.00 | 48 | 1017.1 |
| 20260507133423 | 45 | 256 | 1.0 | 2.0 | 0.00 | 0.00 | 0.00 | 49 | 1017.0 |
| 20260507133332 | 44 | 248 | 1.0 | 2.0 | 0.00 | 0.00 | 0.00 | 49 | 1017.0 |
| 20260507132923 | 44 | 248 | 1.0 | 2.0 | 0.00 | 0.00 | 0.00 | 49 | 1017.0 |
| 20260507132827 | 44 | 246 | 2.0 | 3.0 | 0.00 | 0.00 | 0.00 | 48 | 1016.9 |
| 20260507132422 | 44 | 246 | 2.0 | 3.0 | 0.00 | 0.00 | 0.00 | 48 | 1016.9 |
| 20260507131921 | 44 | 250 | 2.0 | 2.0 | 0.00 | 0.00 | 0.00 | 48 | 1016.8 |
| 20260507131421 | 43 | 243 | 2.0 | 2.0 | 0.00 | 0.00 | 0.00 | 48 | 1016.8 |
| 20260507131330 | 43 | 245 | 2.0 | 2.0 | 0.00 | 0.00 | 0.00 | 49 | 1016.8 |
| 20260507130920 | 43 | 245 | 2.0 | 2.0 | 0.00 | 0.00 | 0.00 | 49 | 1016.8 |
| 20260507130829 | 42 | 242 | 2.0 | 2.0 | 0.00 | 0.00 | 0.00 | 49 | 1016.8 |
| 20260507130420 | 42 | 242 | 2.0 | 2.0 | 0.00 | 0.00 | 0.00 | 49 | 1016.8 |
| 20260507130324 | 42 | 241 | 1.0 | 2.0 | 0.00 | 0.00 | 0.00 | 51 | 1016.8 |
| 20260507125919 | 42 | 241 | 1.0 | 2.0 | 0.00 | 0.00 | 0.00 | 51 | 1016.8 |
| 20260507125828 | 42 | 251 | 1.0 | 2.0 | 0.00 | 0.00 | 0.00 | 51 | 1016.8 |
| 20260507125418 | 42 | 251 | 1.0 | 2.0 | 0.00 | 0.00 | 0.00 | 51 | 1016.8 |
| 20260507124918 | 41 | 240 | 1.0 | 2.0 | 0.00 | 0.00 | 0.00 | 51 | 1016.6 |
| 20260507124417 | 41 | 249 | 1.0 | 2.0 | 0.00 | 0.00 | 0.00 | 51 | 1016.6 |
| 20260507123917 | 41 | 247 | 1.0 | 2.0 | 0.00 | 0.00 | 0.00 | 52 | 1016.4 |
| 20260507123418 | 40 | 244 | 1.0 | 2.0 | 0.00 | 0.00 | 0.00 | 52 | 1016.4 |
| 20260507122915 | 40 | 246 | 1.0 | 2.0 | 0.00 | 0.00 | 0.00 | 53 | 1016.4 |
| 20260507122415 | 40 | 246 | 1.0 | 2.0 | 0.00 | 0.00 | 0.00 | 53 | 1016.3 |
| 20260507121914 | 40 | 249 | 1.0 | 2.0 | 0.00 | 0.00 | 0.00 | 52 | 1016.4 |
| 20260507121413 | 40 | 250 | 2.0 | 2.0 | 0.00 | 0.00 | 0.00 | 52 | 1016.3 |
| 20260507120913 | 40 | 247 | 1.0 | 2.0 | 0.00 | 0.00 | 0.00 | 53 | 1016.4 |
| 20260507120412 | 39 | 242 | 1.0 | 2.0 | 0.00 | 0.00 | 0.00 | 53 | 1016.4 |
| 20260507115912 | 39 | 240 | 1.0 | 2.0 | 0.00 | 0.00 | 0.00 | 54 | 1016.4 |
| 20260507115821 | 39 | 240 | 1.0 | 1.0 | 0.00 | 0.00 | 0.00 | 54 | 1016.4 |
| 20260507115411 | 39 | 240 | 1.0 | 1.0 | 0.00 | 0.00 | 0.00 | 54 | 1016.4 |
| 20260507114910 | 39 | 241 | 1.0 | 1.0 | 0.00 | 0.00 | 0.00 | 54 | 1016.4 |
| 20260507114410 | 39 | 253 | 1.0 | 1.0 | 0.00 | 0.00 | 0.00 | 56 | 1016.4 |
| 20260507113909 | 39 | 247 | 1.0 | 2.0 | 0.00 | 0.00 | 0.00 | 54 | 1016.3 |
| 20260507113409 | 39 | 252 | 1.0 | 1.0 | 0.00 | 0.00 | 0.00 | 54 | 1016.3 |
| 20260507113319 | 39 | 244 | 1.0 | 1.0 | 0.00 | 0.00 | 0.00 | 56 | 1016.2 |
| 20260507112908 | 39 | 244 | 1.0 | 1.0 | 0.00 | 0.00 | 0.00 | 56 | 1016.2 |
| 20260507112407 | 39 | 243 | 1.0 | 2.0 | 0.00 | 0.00 | 0.00 | 56 | 1016.2 |
| 20260507111907 | 39 | 250 | 2.0 | 2.0 | 0.00 | 0.00 | 0.00 | 55 | 1016.2 |
| 20260507111406 | 39 | 247 | 1.0 | 2.0 | 0.00 | 0.00 | 0.00 | 56 | 1016.2 |
| 20260507110906 | 39 | 245 | 1.0 | 2.0 | 0.00 | 0.00 | 0.00 | 55 | 1016.2 |
| 20260507110405 | 39 | 247 | 1.0 | 2.0 | 0.00 | 0.00 | 0.00 | 55 | 1016.2 |
| 20260507110315 | 39 | 247 | 2.0 | 2.0 | 0.00 | 0.00 | 0.00 | 56 | 1016.2 |
| 20260507105904 | 39 | 247 | 2.0 | 2.0 | 0.00 | 0.00 | 0.00 | 56 | 1016.2 |
| 20260507105404 | 39 | 246 | 2.0 | 2.0 | 0.00 | 0.00 | 0.00 | 55 | 1016.2 |
| 20260507105314 | 39 | 239 | 1.0 | 2.0 | 0.00 | 0.00 | 0.00 | 56 | 1016.3 |
| 20260507104903 | 39 | 239 | 1.0 | 2.0 | 0.00 | 0.00 | 0.00 | 56 | 1016.3 |
| 20260507104402 | 39 | 247 | 1.0 | 1.0 | 0.00 | 0.00 | 0.00 | 56 | 1016.3 |
| 20260507104313 | 39 | 243 | 1.0 | 1.0 | 0.00 | 0.00 | 0.00 | 56 | 1016.3 |
| 20260507103902 | 39 | 243 | 1.0 | 1.0 | 0.00 | 0.00 | 0.00 | 56 | 1016.3 |
| 20260507103812 | 38 | 246 | 1.0 | 2.0 | 0.00 | 0.00 | 0.00 | 57 | 1016.3 |
| 20260507103401 | 38 | 246 | 1.0 | 2.0 | 0.00 | 0.00 | 0.00 | 57 | 1016.3 |
| 20260507103312 | 38 | 245 | 1.0 | 1.0 | 0.00 | 0.00 | 0.00 | 58 | 1016.4 |
| 20260507102901 | 38 | 245 | 1.0 | 1.0 | 0.00 | 0.00 | 0.00 | 58 | 1016.4 |
| 20260507102400 | 38 | 245 | 1.0 | 2.0 | 0.00 | 0.00 | 0.00 | 57 | 1016.4 |
| 20260507101859 | 38 | 246 | 1.0 | 2.0 | 0.00 | 0.00 | 0.00 | 58 | 1016.5 |
| 20260507101805 | 38 | 239 | 1.0 | 2.0 | 0.00 | 0.00 | 0.00 | 58 | 1016.5 |
| 20260507101359 | 38 | 239 | 1.0 | 2.0 | 0.00 | 0.00 | 0.00 | 58 | 1016.5 |
| 20260507100858 | 38 | 246 | 1.0 | 2.0 | 0.00 | 0.00 | 0.00 | 59 | 1016.6 |
| 20260507100355 | 38 | 248 | 1.0 | 2.0 | 0.00 | 0.00 | 0.00 | 60 | 1016.6 |
| 20260507100259 | 38 | 248 | 1.0 | 1.0 | 0.00 | 0.00 | 0.00 | 61 | 1016.6 |
| 20260507095854 | 38 | 248 | 1.0 | 1.0 | 0.00 | 0.00 | 0.00 | 61 | 1016.6 |
| 20260507095803 | 38 | 251 | 2.0 | 2.0 | 0.00 | 0.00 | 0.00 | 61 | 1016.6 |
| 20260507095353 | 38 | 251 | 2.0 | 2.0 | 0.00 | 0.00 | 0.00 | 61 | 1016.6 |
| 20260507095258 | 38 | 248 | 1.0 | 2.0 | 0.00 | 0.00 | 0.00 | 60 | 1016.6 |
| 20260507094853 | 38 | 248 | 1.0 | 2.0 | 0.00 | 0.00 | 0.00 | 60 | 1016.6 |
| 20260507094802 | 38 | 249 | 1.0 | 2.0 | 0.00 | 0.00 | 0.00 | 62 | 1016.6 |
| 20260507094352 | 38 | 249 | 1.0 | 2.0 | 0.00 | 0.00 | 0.00 | 62 | 1016.6 |
| 20260507094302 | 38 | 244 | 1.0 | 2.0 | 0.00 | 0.00 | 0.00 | 62 | 1016.6 |
| 20260507093851 | 38 | 244 | 1.0 | 2.0 | 0.00 | 0.00 | 0.00 | 62 | 1016.6 |
| 20260507093801 | 38 | 247 | 1.0 | 2.0 | 0.00 | 0.00 | 0.00 | 62 | 1016.6 |
| 20260507093351 | 38 | 247 | 1.0 | 2.0 | 0.00 | 0.00 | 0.00 | 62 | 1016.6 |
| 20260507093301 | 38 | 244 | 1.0 | 1.0 | 0.00 | 0.00 | 0.00 | 62 | 1016.6 |
| 20260507092850 | 38 | 244 | 1.0 | 1.0 | 0.00 | 0.00 | 0.00 | 62 | 1016.6 |
| 20260507092349 | 38 | 247 | 1.0 | 2.0 | 0.00 | 0.00 | 0.00 | 61 | 1016.6 |
| 20260507092300 | 37 | 243 | 1.0 | 1.0 | 0.00 | 0.00 | 0.00 | 63 | 1016.6 |
| 20260507091849 | 37 | 243 | 1.0 | 1.0 | 0.00 | 0.00 | 0.00 | 63 | 1016.6 |
| 20260507091759 | 38 | 242 | 1.0 | 1.0 | 0.00 | 0.00 | 0.00 | 64 | 1016.8 |
| 20260507091348 | 38 | 242 | 1.0 | 1.0 | 0.00 | 0.00 | 0.00 | 64 | 1016.8 |
| 20260507090847 | 38 | 245 | 1.0 | 1.0 | 0.00 | 0.00 | 0.00 | 63 | 1016.8 |
| 20260507090347 | 37 | 244 | 1.0 | 2.0 | 0.00 | 0.00 | 0.00 | 64 | 1016.6 |
| 20260507085846 | 37 | 245 | 1.0 | 2.0 | 0.00 | 0.00 | 0.00 | 64 | 1016.6 |
| 20260507085345 | 37 | 246 | 1.0 | 2.0 | 0.00 | 0.00 | 0.00 | 65 | 1016.6 |
| 20260507084844 | 37 | 241 | 1.0 | 2.0 | 0.00 | 0.00 | 0.00 | 67 | 1016.6 |
| 20260507084343 | 37 | 245 | 1.0 | 2.0 | 0.00 | 0.00 | 0.00 | 68 | 1016.6 |
| 20260507083843 | 37 | 250 | 1.0 | 2.0 | 0.00 | 0.00 | 0.00 | 68 | 1016.6 |
| 20260507083342 | 37 | 242 | 1.0 | 2.0 | 0.00 | 0.00 | 0.00 | 70 | 1016.8 |
| 20260507083251 | 37 | 250 | 1.0 | 1.0 | 0.00 | 0.00 | 0.00 | 69 | 1016.8 |
| 20260507082842 | 37 | 250 | 1.0 | 1.0 | 0.00 | 0.00 | 0.00 | 69 | 1016.8 |
| 20260507082341 | 37 | 252 | 1.0 | 2.0 | 0.00 | 0.00 | 0.00 | 68 | 1016.8 |
| 20260507081840 | 37 | 251 | 1.0 | 2.0 | 0.00 | 0.00 | 0.00 | 69 | 1016.9 |
| 20260507081749 | 37 | 244 | 1.0 | 2.0 | 0.00 | 0.00 | 0.00 | 69 | 1017.0 |
| 20260507081339 | 37 | 244 | 1.0 | 2.0 | 0.00 | 0.00 | 0.00 | 69 | 1017.0 |
| 20260507080839 | 37 | 243 | 1.0 | 1.0 | 0.00 | 0.00 | 0.00 | 70 | 1017.1 |
| 20260507080338 | 37 | 244 | 1.0 | 1.0 | 0.00 | 0.00 | 0.00 | 71 | 1017.2 |
| 20260507075838 | 37 | 247 | 1.0 | 2.0 | 0.00 | 0.00 | 0.00 | 71 | 1017.1 |
| 20260507075337 | 37 | 245 | 1.0 | 2.0 | 0.00 | 0.00 | 0.00 | 73 | 1017.1 |
| 20260507074836 | 37 | 246 | 2.0 | 3.0 | 0.00 | 0.00 | 0.00 | 74 | 1017.1 |
| 20260507074746 | 37 | 246 | 1.0 | 2.0 | 0.00 | 0.00 | 0.00 | 74 | 1017.2 |
| 20260507074336 | 37 | 246 | 1.0 | 2.0 | 0.00 | 0.00 | 0.00 | 74 | 1017.2 |
| 20260507073835 | 37 | 242 | 2.0 | 3.0 | 0.00 | 0.00 | 0.00 | 75 | 1017.2 |
| 20260507073334 | 37 | 251 | 1.0 | 2.0 | 0.00 | 0.00 | 0.00 | 75 | 1017.4 |
| 20260507073244 | 37 | 252 | 2.0 | 2.0 | 0.00 | 0.00 | 0.00 | 76 | 1017.4 |
| 20260507072834 | 37 | 252 | 2.0 | 2.0 | 0.00 | 0.00 | 0.00 | 76 | 1017.4 |
| 20260507072744 | 36 | 246 | 1.0 | 2.0 | 0.00 | 0.00 | 0.00 | 76 | 1017.4 |
| 20260507072333 | 36 | 246 | 1.0 | 2.0 | 0.00 | 0.00 | 0.00 | 76 | 1017.4 |
| 20260507071832 | 37 | 252 | 1.0 | 2.0 | 0.00 | 0.00 | 0.00 | 76 | 1017.4 |
| 20260507071332 | 37 | 243 | 1.0 | 2.0 | 0.00 | 0.00 | 0.00 | 76 | 1017.5 |
| 20260507070831 | 37 | 250 | 1.0 | 2.0 | 0.00 | 0.00 | 0.00 | 76 | 1017.6 |
| 20260507070330 | 37 | 248 | 1.0 | 2.0 | 0.00 | 0.00 | 0.00 | 75 | 1017.6 |
| 20260507065830 | 36 | 246 | 1.0 | 2.0 | 0.00 | 0.00 | 0.00 | 76 | 1017.5 |
| 20260507065329 | 36 | 242 | 1.0 | 1.0 | 0.00 | 0.00 | 0.00 | 77 | 1017.5 |
| 20260507064828 | 36 | 244 | 1.0 | 1.0 | 0.00 | 0.00 | 0.00 | 77 | 1017.5 |
| 20260507064740 | 36 | 242 | 1.0 | 1.0 | 0.00 | 0.00 | 0.00 | 79 | 1017.5 |
| 20260507064327 | 36 | 242 | 1.0 | 1.0 | 0.00 | 0.00 | 0.00 | 79 | 1017.5 |
| 20260507063827 | 36 | 251 | 1.0 | 1.0 | 0.00 | 0.00 | 0.00 | 80 | 1017.6 |
| 20260507063326 | 36 | 245 | 1.0 | 1.0 | 0.00 | 0.00 | 0.00 | 81 | 1017.6 |
| 20260507063234 | 35 | 245 | 1.0 | 1.0 | 0.00 | 0.00 | 0.00 | 82 | 1017.6 |
| 20260507062825 | 35 | 245 | 1.0 | 1.0 | 0.00 | 0.00 | 0.00 | 82 | 1017.6 |
| 20260507062325 | 35 | 242 | 1.0 | 1.0 | 0.00 | 0.00 | 0.00 | 82 | 1017.6 |
| 20260507061824 | 35 | 244 | 1.0 | 1.0 | 0.00 | 0.00 | 0.00 | 83 | 1017.6 |
| 20260507061732 | 35 | 231 | 1.0 | 1.0 | 0.00 | 0.00 | 0.00 | 85 | 1017.6 |
| 20260507061323 | 35 | 231 | 1.0 | 1.0 | 0.00 | 0.00 | 0.00 | 85 | 1017.6 |
| 20260507060823 | 35 | 225 | 0.0 | 0.0 | 0.00 | 0.00 | 0.00 | 85 | 1017.7 |
| 20260507060732 | 35 | 241 | 1.0 | 1.0 | 0.00 | 0.00 | 0.00 | 84 | 1017.7 |
| 20260507060322 | 35 | 241 | 1.0 | 1.0 | 0.00 | 0.00 | 0.00 | 84 | 1017.7 |
| 20260507055821 | 35 | 242 | 1.0 | 1.0 | 0.00 | 0.00 | 0.93 | 84 | 1017.7 |
| 20260507055721 | 35 | 245 | 1.0 | 1.0 | 0.00 | 0.00 | 0.93 | 84 | 1017.8 |
| 20260507055321 | 35 | 245 | 1.0 | 1.0 | 0.00 | 0.00 | 0.93 | 84 | 1017.8 |
| 20260507055230 | 34 | 233 | 1.0 | 1.0 | 0.00 | 0.00 | 0.93 | 85 | 1017.7 |
| 20260507054820 | 34 | 233 | 1.0 | 1.0 | 0.00 | 0.00 | 0.93 | 85 | 1017.7 |
| 20260507054319 | 34 | 238 | 1.0 | 1.0 | 0.00 | 0.00 | 0.93 | 86 | 1017.8 |
| 20260507054224 | 34 | 241 | 1.0 | 1.0 | 0.00 | 0.00 | 0.93 | 86 | 1017.9 |
| 20260507053819 | 34 | 241 | 1.0 | 1.0 | 0.00 | 0.00 | 0.93 | 86 | 1017.9 |
| 20260507053719 | 34 | 240 | 0.0 | 1.0 | 0.00 | 0.00 | 0.93 | 86 | 1017.9 |
| 20260507053318 | 34 | 240 | 0.0 | 1.0 | 0.00 | 0.00 | 0.93 | 86 | 1017.9 |
| 20260507052817 | 34 | 234 | 1.0 | 1.0 | 0.00 | 0.00 | 0.93 | 86 | 1018.1 |
| 20260507052728 | 34 | 225 | 0.0 | 1.0 | 0.00 | 0.00 | 0.93 | 88 | 1017.9 |
| 20260507052317 | 34 | 225 | 0.0 | 1.0 | 0.00 | 0.00 | 0.93 | 88 | 1017.9 |
| 20260507052227 | 35 | 229 | 0.0 | 1.0 | 0.00 | 0.00 | 0.93 | 85 | 1018.1 |
| 20260507051816 | 35 | 229 | 0.0 | 1.0 | 0.00 | 0.00 | 0.93 | 85 | 1018.1 |
| 20260507051316 | 35 | 207 | 0.0 | 1.0 | 0.00 | 0.00 | 0.93 | 86 | 1018.2 |
| 20260507050815 | 35 | 228 | 0.0 | 1.0 | 0.00 | 0.00 | 0.93 | 85 | 1018.2 |
| 20260507050314 | 34 | 224 | 1.0 | 1.0 | 0.00 | 0.00 | 0.93 | 85 | 1018.2 |
| 20260507045814 | 34 | 225 | 0.0 | 1.0 | 0.00 | 0.00 | 0.93 | 86 | 1018.2 |
| 20260507045313 | 34 | 218 | 0.0 | 1.0 | 0.00 | 0.00 | 0.93 | 86 | 1018.2 |
| 20260507044812 | 34 | 186 | 0.0 | 1.0 | 0.00 | 0.00 | 0.93 | 86 | 1018.3 |
| 20260507044312 | 34 | 136 | 0.0 | 0.0 | 0.00 | 0.00 | 0.93 | 87 | 1018.2 |
| 20260507043811 | 34 | 147 | 0.0 | 0.0 | 0.00 | 0.00 | 0.93 | 87 | 1018.2 |
| 20260507043310 | 34 | 191 | 1.0 | 1.0 | 0.00 | 0.00 | 0.93 | 87 | 1018.2 |
| 20260507042810 | 34 | 333 | 0.0 | 0.0 | 0.00 | 0.00 | 0.93 | 88 | 1018.2 |
| 20260507042309 | 34 | 148 | 1.0 | 1.0 | 0.00 | 0.00 | 0.93 | 88 | 1018.2 |
| 20260507041808 | 34 | 169 | 1.0 | 1.0 | 0.00 | 0.00 | 0.93 | 90 | 1018.2 |
| 20260507041701 | 34 | 106 | 0.0 | 1.0 | 0.00 | 0.00 | 0.93 | 88 | 1018.4 |
| 20260507041308 | 34 | 106 | 0.0 | 1.0 | 0.00 | 0.00 | 0.93 | 88 | 1018.4 |
| 20260507040807 | 34 | 119 | 0.0 | 1.0 | 0.00 | 0.00 | 0.93 | 87 | 1018.4 |
| 20260507040306 | 34 | 74 | 0.0 | 0.0 | 0.00 | 0.00 | 0.93 | 87 | 1018.4 |
| 20260507040215 | 34 | 84 | 0.0 | 1.0 | 0.00 | 0.00 | 0.93 | 90 | 1018.3 |
| 20260507035806 | 34 | 84 | 0.0 | 1.0 | 0.00 | 0.00 | 0.93 | 90 | 1018.3 |
| 20260507035306 | 34 | 54 | 0.0 | 0.0 | 0.00 | 0.00 | 0.93 | 89 | 1018.3 |
| 20260507035209 | 34 | 166 | 0.0 | 0.0 | 0.00 | 0.00 | 0.93 | 88 | 1018.3 |
| 20260507034805 | 34 | 166 | 0.0 | 0.0 | 0.00 | 0.00 | 0.93 | 88 | 1018.3 |
| 20260507034304 | 35 | 185 | 0.0 | 0.0 | 0.00 | 0.00 | 0.93 | 87 | 1018.3 |
| 20260507034213 | 35 | 105 | 0.0 | 0.0 | 0.00 | 0.00 | 0.93 | 86 | 1018.2 |
| 20260507033803 | 35 | 105 | 0.0 | 0.0 | 0.00 | 0.00 | 0.93 | 86 | 1018.2 |
| 20260507033712 | 35 | 170 | 0.0 | 0.0 | 0.00 | 0.00 | 0.93 | 81 | 1018.2 |
| 20260507033303 | 35 | 170 | 0.0 | 0.0 | 0.00 | 0.00 | 0.93 | 81 | 1018.2 |
| 20260507032802 | 36 | 147 | 0.0 | 1.0 | 0.00 | 0.00 | 0.93 | 82 | 1018.2 |
| 20260507032305 | 36 | 173 | 0.0 | 0.0 | 0.00 | 0.00 | 0.93 | 80 | 1018.2 |
| 20260507031801 | 36 | 164 | 0.0 | 0.0 | 0.00 | 0.00 | 0.93 | 79 | 1018.2 |
| 20260507031300 | 36 | 166 | 0.0 | 1.0 | 0.00 | 0.00 | 0.93 | 78 | 1018.2 |
| 20260507030759 | 36 | 168 | 0.0 | 1.0 | 0.00 | 0.00 | 0.93 | 78 | 1018.2 |
| 20260507030259 | 36 | 152 | 0.0 | 1.0 | 0.00 | 0.00 | 0.93 | 77 | 1018.1 |
| 20260507030209 | 37 | 157 | 1.0 | 1.0 | 0.00 | 0.00 | 0.93 | 77 | 1018.1 |
| 20260507025758 | 37 | 157 | 1.0 | 1.0 | 0.00 | 0.00 | 0.93 | 77 | 1018.1 |
| 20260507025257 | 37 | 161 | 1.0 | 1.0 | 0.00 | 0.00 | 0.93 | 76 | 1018.1 |
| 20260507025208 | 37 | 193 | 1.0 | 1.0 | 0.00 | 0.00 | 0.93 | 75 | 1017.9 |
| 20260507024757 | 37 | 193 | 1.0 | 1.0 | 0.00 | 0.00 | 0.93 | 75 | 1017.9 |
| 20260507024707 | 37 | 202 | 1.0 | 1.0 | 0.00 | 0.00 | 0.93 | 75 | 1017.9 |
| 20260507024256 | 37 | 202 | 1.0 | 1.0 | 0.00 | 0.00 | 0.93 | 75 | 1017.9 |
| 20260507024207 | 37 | 194 | 0.0 | 1.0 | 0.00 | 0.00 | 0.93 | 74 | 1017.9 |
| 20260507023756 | 37 | 194 | 0.0 | 1.0 | 0.00 | 0.00 | 0.93 | 74 | 1017.9 |
| 20260507023706 | 37 | 204 | 1.0 | 1.0 | 0.00 | 0.00 | 0.93 | 74 | 1017.9 |
| 20260507023255 | 37 | 204 | 1.0 | 1.0 | 0.00 | 0.00 | 0.93 | 74 | 1017.9 |
| 20260507023201 | 37 | 185 | 1.0 | 1.0 | 0.00 | 0.00 | 0.93 | 73 | 1017.9 |
| 20260507022754 | 37 | 185 | 1.0 | 1.0 | 0.00 | 0.00 | 0.93 | 73 | 1017.9 |
| 20260507022655 | 38 | 191 | 1.0 | 1.0 | 0.00 | 0.00 | 0.93 | 73 | 1017.9 |
| 20260507022254 | 38 | 191 | 1.0 | 1.0 | 0.00 | 0.00 | 0.93 | 73 | 1017.9 |
| 20260507021753 | 38 | 223 | 1.0 | 1.0 | 0.00 | 0.00 | 0.93 | 72 | 1017.9 |
| 20260507021252 | 38 | 202 | 1.0 | 2.0 | 0.00 | 0.00 | 0.93 | 71 | 1017.9 |
| 20260507020752 | 38 | 212 | 1.0 | 1.0 | 0.00 | 0.00 | 0.93 | 71 | 1017.9 |
| 20260507020659 | 38 | 207 | 1.0 | 2.0 | 0.00 | 0.00 | 0.93 | 70 | 1017.8 |
| 20260507020251 | 38 | 207 | 1.0 | 2.0 | 0.00 | 0.00 | 0.93 | 70 | 1017.8 |
| 20260507015750 | 38 | 194 | 1.0 | 2.0 | 0.00 | 0.00 | 0.93 | 70 | 1017.8 |
| 20260507015652 | 38 | 203 | 1.0 | 2.0 | 0.00 | 0.00 | 0.93 | 69 | 1017.8 |
| 20260507015250 | 38 | 203 | 1.0 | 2.0 | 0.00 | 0.00 | 0.93 | 69 | 1017.8 |
| 20260507014749 | 38 | 200 | 1.0 | 2.0 | 0.00 | 0.00 | 0.93 | 68 | 1017.9 |
| 20260507014656 | 39 | 194 | 1.0 | 3.0 | 0.00 | 0.00 | 0.93 | 67 | 1017.9 |
| 20260507014248 | 39 | 194 | 1.0 | 3.0 | 0.00 | 0.00 | 0.93 | 67 | 1017.9 |
| 20260507013748 | 39 | 228 | 1.0 | 2.0 | 0.00 | 0.00 | 0.93 | 67 | 1017.9 |
| 20260507013247 | 39 | 208 | 1.0 | 1.0 | 0.00 | 0.00 | 0.93 | 67 | 1017.9 |
| 20260507012746 | 39 | 202 | 2.0 | 3.0 | 0.00 | 0.00 | 0.93 | 66 | 1018.1 |
| 20260507012246 | 39 | 231 | 1.0 | 2.0 | 0.00 | 0.00 | 0.93 | 67 | 1018.1 |
| 20260507011745 | 39 | 203 | 2.0 | 3.0 | 0.00 | 0.00 | 0.93 | 66 | 1018.1 |
| 20260507011245 | 39 | 207 | 1.0 | 2.0 | 0.00 | 0.00 | 0.93 | 68 | 1018.1 |
| 20260507010744 | 39 | 195 | 1.0 | 2.0 | 0.00 | 0.00 | 0.93 | 66 | 1018.1 |
| 20260507010654 | 39 | 216 | 1.0 | 2.0 | 0.00 | 0.00 | 0.93 | 66 | 1018.2 |
| 20260507010243 | 39 | 216 | 1.0 | 2.0 | 0.00 | 0.00 | 0.93 | 66 | 1018.2 |
| 20260507005742 | 39 | 243 | 1.0 | 2.0 | 0.00 | 0.00 | 0.93 | 67 | 1018.2 |
| 20260507005653 | 39 | 187 | 1.0 | 2.0 | 0.00 | 0.00 | 0.93 | 67 | 1018.2 |
| 20260507005242 | 39 | 187 | 1.0 | 2.0 | 0.00 | 0.00 | 0.93 | 67 | 1018.2 |
| 20260507004741 | 39 | 193 | 1.0 | 2.0 | 0.00 | 0.00 | 0.93 | 66 | 1018.2 |
| 20260507004241 | 39 | 214 | 1.0 | 2.0 | 0.00 | 0.00 | 0.93 | 68 | 1018.3 |
| 20260507003740 | 39 | 237 | 1.0 | 2.0 | 0.00 | 0.00 | 0.93 | 66 | 1018.3 |
| 20260507003239 | 39 | 214 | 1.0 | 1.0 | 0.00 | 0.00 | 0.93 | 65 | 1018.4 |
| 20260507003150 | 39 | 243 | 1.0 | 1.0 | 0.00 | 0.00 | 0.93 | 66 | 1018.5 |
| 20260507002739 | 39 | 243 | 1.0 | 1.0 | 0.00 | 0.00 | 0.93 | 66 | 1018.5 |
| 20260507002649 | 39 | 239 | 1.0 | 2.0 | 0.00 | 0.00 | 0.93 | 68 | 1018.5 |
| 20260507002238 | 39 | 239 | 1.0 | 2.0 | 0.00 | 0.00 | 0.93 | 68 | 1018.5 |
| 20260507002144 | 39 | 223 | 1.0 | 2.0 | 0.00 | 0.00 | 0.93 | 68 | 1018.5 |
| 20260507001738 | 39 | 223 | 1.0 | 2.0 | 0.00 | 0.00 | 0.93 | 68 | 1018.5 |
| 20260507001638 | 39 | 239 | 1.0 | 1.0 | 0.00 | 0.00 | 0.93 | 67 | 1018.6 |
| 20260507001237 | 39 | 239 | 1.0 | 1.0 | 0.00 | 0.00 | 0.93 | 67 | 1018.6 |
| 20260507000736 | 38 | 170 | 1.0 | 2.0 | 0.00 | 0.00 | 0.93 | 68 | 1018.6 |
| 20260507000642 | 38 | 201 | 2.0 | 3.0 | 0.00 | 0.00 | 0.93 | 68 | 1018.6 |
| 20260507000236 | 38 | 201 | 2.0 | 3.0 | 0.00 | 0.00 | 0.93 | 68 | 1018.6 |
| 20260507000142 | 39 | 199 | 2.0 | 2.0 | 0.00 | 0.00 | 0.93 | 67 | 1018.6 |
| 20260506235735 | 39 | 199 | 2.0 | 2.0 | 0.00 | 0.00 | 0.93 | 67 | 1018.6 |
| 20260506235636 | 39 | 234 | 1.0 | 1.0 | 0.00 | 0.00 | 0.93 | 68 | 1018.6 |
| 20260506235234 | 39 | 234 | 1.0 | 1.0 | 0.00 | 0.00 | 0.93 | 68 | 1018.6 |
| 20260506235141 | 38 | 247 | 0.0 | 1.0 | 0.00 | 0.00 | 0.93 | 69 | 1018.6 |
| 20260506234734 | 38 | 247 | 0.0 | 1.0 | 0.00 | 0.00 | 0.93 | 69 | 1018.6 |
| 20260506234640 | 38 | 202 | 1.0 | 1.0 | 0.00 | 0.00 | 0.93 | 68 | 1018.5 |
| 20260506234233 | 38 | 202 | 1.0 | 1.0 | 0.00 | 0.00 | 0.93 | 68 | 1018.5 |
| 20260506234140 | 38 | 247 | 1.0 | 1.0 | 0.00 | 0.00 | 0.93 | 71 | 1018.6 |
| 20260506233732 | 38 | 247 | 1.0 | 1.0 | 0.00 | 0.00 | 0.93 | 71 | 1018.6 |
| 20260506233231 | 38 | 213 | 1.0 | 2.0 | 0.00 | 0.00 | 0.93 | 69 | 1018.6 |
| 20260506232731 | 38 | 183 | 1.0 | 1.0 | 0.00 | 0.00 | 0.93 | 66 | 1018.6 |
| 20260506232230 | 38 | 229 | 0.0 | 1.0 | 0.00 | 0.00 | 0.93 | 68 | 1018.6 |
| 20260506231729 | 38 | 192 | 1.0 | 2.0 | 0.00 | 0.01 | 0.93 | 68 | 1018.6 |
| 20260506231229 | 38 | 199 | 2.0 | 3.0 | 0.00 | 0.01 | 0.93 | 66 | 1018.8 |
| 20260506230728 | 38 | 152 | 0.0 | 0.0 | 0.00 | 0.01 | 0.93 | 70 | 1018.8 |
| 20260506230227 | 38 | 208 | 1.0 | 2.0 | 0.00 | 0.02 | 0.93 | 67 | 1018.8 |
| 20260506225727 | 38 | 177 | 1.0 | 1.0 | 0.00 | 0.03 | 0.93 | 67 | 1018.8 |
| 20260506225226 | 38 | 197 | 1.0 | 2.0 | 0.00 | 0.04 | 0.93 | 67 | 1018.8 |
| 20260506224726 | 38 | 243 | 1.0 | 1.0 | 0.00 | 0.04 | 0.93 | 69 | 1018.9 |
| 20260506224225 | 38 | 259 | 0.0 | 1.0 | 0.00 | 0.04 | 0.93 | 69 | 1018.9 |
| 20260506224135 | 38 | 231 | 1.0 | 2.0 | 0.00 | 0.05 | 0.93 | 68 | 1018.9 |
| 20260506223724 | 38 | 231 | 1.0 | 2.0 | 0.00 | 0.05 | 0.93 | 68 | 1018.9 |
| 20260506223224 | 38 | 249 | 1.0 | 1.0 | 0.00 | 0.05 | 0.93 | 69 | 1019.0 |
| 20260506223129 | 37 | 176 | 1.0 | 1.0 | 0.00 | 0.06 | 0.93 | 67 | 1019.1 |
| 20260506222723 | 37 | 176 | 1.0 | 1.0 | 0.00 | 0.06 | 0.93 | 67 | 1019.1 |
| 20260506222628 | 37 | 196 | 2.0 | 2.0 | 0.00 | 0.07 | 0.93 | 69 | 1019.1 |
| 20260506222222 | 37 | 196 | 2.0 | 2.0 | 0.00 | 0.07 | 0.93 | 69 | 1019.1 |
| 20260506222128 | 37 | 235 | 1.0 | 1.0 | 0.00 | 0.07 | 0.93 | 71 | 1019.2 |
| 20260506221722 | 37 | 235 | 1.0 | 1.0 | 0.00 | 0.07 | 0.93 | 71 | 1019.2 |
| 20260506221632 | 37 | 225 | 1.0 | 1.0 | 0.00 | 0.07 | 0.93 | 73 | 1019.2 |
| 20260506221221 | 37 | 225 | 1.0 | 1.0 | 0.00 | 0.07 | 0.93 | 73 | 1019.2 |
| 20260506221127 | 37 | 256 | 1.0 | 1.0 | 0.00 | 0.07 | 0.93 | 72 | 1019.4 |
| 20260506220721 | 37 | 256 | 1.0 | 1.0 | 0.00 | 0.07 | 0.93 | 72 | 1019.4 |
| 20260506220220 | 38 | 232 | 0.0 | 0.0 | 0.00 | 0.07 | 0.93 | 72 | 1019.4 |
| 20260506220154 | 37 | 21 | 0.0 | 0.0 | 0.00 | 0.07 | 0.93 | 73 | 1019.5 |
| 20260506215719 | 37 | 21 | 0.0 | 0.0 | 0.00 | 0.07 | 0.93 | 73 | 1019.5 |
| 20260506215219 | 37 | 235 | 0.0 | 0.0 | 0.00 | 0.07 | 0.93 | 73 | 1019.4 |
| 20260506214718 | 37 | 258 | 0.0 | 1.0 | 0.00 | 0.07 | 0.93 | 74 | 1019.4 |
| 20260506214620 | 37 | 228 | 0.0 | 1.0 | 0.00 | 0.07 | 0.93 | 72 | 1019.5 |
| 20260506214217 | 37 | 228 | 0.0 | 1.0 | 0.00 | 0.07 | 0.93 | 72 | 1019.5 |
| 20260506214124 | 37 | 176 | 1.0 | 1.0 | 0.00 | 0.07 | 0.93 | 73 | 1019.5 |
| 20260506213717 | 37 | 176 | 1.0 | 1.0 | 0.00 | 0.07 | 0.93 | 73 | 1019.5 |
| 20260506213216 | 37 | 226 | 1.0 | 1.0 | 0.00 | 0.07 | 0.93 | 74 | 1019.5 |
| 20260506212715 | 37 | 235 | 0.0 | 1.0 | 0.00 | 0.07 | 0.93 | 75 | 1019.6 |
| 20260506212215 | 37 | 107 | 0.0 | 1.0 | 0.00 | 0.07 | 0.93 | 75 | 1019.6 |
| 20260506211714 | 37 | 214 | 0.0 | 1.0 | 0.00 | 0.07 | 0.93 | 75 | 1019.6 |
| 20260506211213 | 37 | 259 | 0.0 | 0.0 | 0.00 | 0.07 | 0.93 | 76 | 1019.7 |
| 20260506210713 | 37 | 228 | 0.0 | 0.0 | 0.00 | 0.07 | 0.93 | 75 | 1019.7 |
| 20260506210212 | 36 | 0 | 0.0 | 0.0 | 0.00 | 0.07 | 0.93 | 78 | 1019.8 |
| 20260506205712 | 36 | 0 | 0.0 | 0.0 | 0.00 | 0.07 | 0.93 | 77 | 1019.8 |
| 20260506205211 | 36 | 173 | 0.0 | 0.0 | 0.00 | 0.07 | 0.93 | 77 | 1019.9 |
| 20260506204710 | 37 | 211 | 1.0 | 1.0 | 0.00 | 0.07 | 0.93 | 73 | 1019.9 |
| 20260506204210 | 38 | 211 | 1.0 | 1.0 | 0.00 | 0.07 | 0.93 | 70 | 1020.1 |
| 20260506203709 | 38 | 90 | 0.0 | 0.0 | 0.00 | 0.08 | 0.93 | 76 | 1020.1 |
| 20260506203208 | 38 | 125 | 0.0 | 1.0 | 0.00 | 0.09 | 0.93 | 75 | 1020.1 |
| 20260506203118 | 38 | 51 | 0.0 | 1.0 | 0.00 | 0.09 | 0.93 | 73 | 1020.2 |
| 20260506202708 | 38 | 51 | 0.0 | 1.0 | 0.00 | 0.09 | 0.93 | 73 | 1020.2 |
| 20260506202608 | 38 | 92 | 1.0 | 1.0 | 0.00 | 0.09 | 0.93 | 72 | 1020.1 |
| 20260506202207 | 38 | 92 | 1.0 | 1.0 | 0.00 | 0.09 | 0.93 | 72 | 1020.1 |
| 20260506202107 | 39 | 215 | 0.0 | 1.0 | 0.00 | 0.09 | 0.93 | 73 | 1020.2 |
| 20260506201706 | 39 | 215 | 0.0 | 1.0 | 0.00 | 0.09 | 0.93 | 73 | 1020.2 |
| 20260506201617 | 39 | 99 | 0.0 | 0.0 | 0.00 | 0.09 | 0.93 | 75 | 1020.2 |
| 20260506201206 | 39 | 99 | 0.0 | 0.0 | 0.00 | 0.09 | 0.93 | 75 | 1020.2 |
| 20260506201116 | 39 | 99 | 0.0 | 1.0 | 0.00 | 0.09 | 0.93 | 74 | 1020.2 |
| 20260506200705 | 39 | 99 | 0.0 | 1.0 | 0.00 | 0.09 | 0.93 | 74 | 1020.2 |
| 20260506200616 | 38 | 0 | 0.0 | 0.0 | 0.00 | 0.09 | 0.93 | 76 | 1020.2 |
| 20260506200204 | 38 | 0 | 0.0 | 0.0 | 0.00 | 0.09 | 0.93 | 76 | 1020.2 |
| 20260506195704 | 37 | 65 | 0.0 | 0.0 | 0.00 | 0.10 | 0.93 | 80 | 1020.3 |
| 20260506195600 | 37 | 38 | 1.0 | 2.0 | 0.00 | 0.10 | 0.93 | 79 | 1020.3 |
| 20260506195203 | 37 | 38 | 1.0 | 2.0 | 0.00 | 0.10 | 0.93 | 79 | 1020.3 |
| 20260506194702 | 36 | 151 | 0.0 | 1.0 | 0.00 | 0.11 | 0.93 | 84 | 1020.3 |
| 20260506194549 | 36 | 51 | 0.0 | 1.0 | 0.00 | 0.11 | 0.93 | 82 | 1020.3 |
| 20260506194202 | 36 | 51 | 0.0 | 1.0 | 0.00 | 0.11 | 0.93 | 82 | 1020.3 |
| 20260506193701 | 36 | 98 | 0.0 | 1.0 | 0.00 | 0.11 | 0.93 | 86 | 1020.4 |
| 20260506193200 | 36 | 51 | 1.0 | 2.0 | 0.00 | 0.11 | 0.93 | 81 | 1020.4 |
| 20260506192700 | 35 | 168 | 1.0 | 1.0 | 0.00 | 0.11 | 0.93 | 81 | 1020.4 |
| 20260506192159 | 35 | 175 | 1.0 | 1.0 | 0.00 | 0.11 | 0.93 | 80 | 1020.4 |
| 20260506191658 | 34 | 95 | 1.0 | 2.0 | 0.00 | 0.11 | 0.93 | 85 | 1020.5 |
| 20260506191158 | 34 | 101 | 1.0 | 2.0 | 0.00 | 0.11 | 0.93 | 85 | 1020.5 |
| 20260506190657 | 34 | 88 | 1.0 | 1.0 | 0.00 | 0.11 | 0.93 | 85 | 1020.5 |
| 20260506190157 | 34 | 80 | 1.0 | 1.0 | 0.00 | 0.11 | 0.93 | 87 | 1020.5 |
| 20260506185656 | 33 | 48 | 1.0 | 2.0 | 0.00 | 0.11 | 0.93 | 89 | 1020.7 |
| 20260506185155 | 33 | 77 | 2.0 | 2.0 | 0.00 | 0.11 | 0.93 | 88 | 1020.7 |
| 20260506184654 | 33 | 83 | 1.0 | 2.0 | 0.00 | 0.11 | 0.93 | 87 | 1020.8 |
| 20260506184154 | 32 | 103 | 1.0 | 1.0 | 0.00 | 0.11 | 0.93 | 88 | 1020.9 |
| 20260506183653 | 32 | 86 | 1.0 | 2.0 | 0.00 | 0.11 | 0.93 | 88 | 1020.8 |
| 20260506183152 | 33 | 89 | 1.0 | 2.0 | 0.00 | 0.11 | 0.93 | 87 | 1020.8 |
| 20260506182652 | 33 | 77 | 1.0 | 2.0 | 0.00 | 0.11 | 0.93 | 89 | 1020.8 |
| 20260506182557 | 32 | 81 | 1.0 | 3.0 | 0.00 | 0.11 | 0.93 | 89 | 1020.8 |
| 20260506182151 | 32 | 81 | 1.0 | 3.0 | 0.00 | 0.11 | 0.93 | 89 | 1020.8 |
| 20260506182056 | 32 | 76 | 1.0 | 3.0 | 0.00 | 0.11 | 0.93 | 86 | 1020.9 |
| 20260506181651 | 32 | 76 | 1.0 | 3.0 | 0.00 | 0.11 | 0.93 | 86 | 1020.9 |
| 20260506181556 | 32 | 75 | 1.0 | 3.0 | 0.00 | 0.11 | 0.93 | 89 | 1020.8 |
| 20260506181150 | 32 | 75 | 1.0 | 3.0 | 0.00 | 0.11 | 0.93 | 89 | 1020.8 |
| 20260506181100 | 31 | 49 | 2.0 | 2.0 | 0.00 | 0.11 | 0.93 | 89 | 1020.8 |
| 20260506180649 | 31 | 49 | 2.0 | 2.0 | 0.00 | 0.11 | 0.93 | 89 | 1020.8 |
| 20260506180600 | 31 | 70 | 1.0 | 2.0 | 0.00 | 0.11 | 0.56 | 91 | 1020.8 |
| 20260506180149 | 31 | 70 | 1.0 | 2.0 | 0.00 | 0.11 | 0.56 | 91 | 1020.8 |
| 20260506180100 | 32 | 60 | 2.0 | 3.0 | 0.00 | 0.11 | 0.56 | 89 | 1020.7 |
| 20260506175648 | 32 | 60 | 2.0 | 3.0 | 0.00 | 0.11 | 0.56 | 89 | 1020.7 |
| 20260506175147 | 31 | 83 | 1.0 | 2.0 | 0.00 | 0.11 | 0.56 | 91 | 1020.8 |